BSAT-4A

Last updated on Sept. 20, 2020, 5:45 a.m. UTC

1 42951U 17059B   20263.76641987 -.00000366  00000-0  00000-0 0  9990
2 42951   0.0513  16.0717 0001382  98.7202 270.1128  1.00271199 10772
UTC
Height (km)
Latitude
Longitude
Inclination
Orbital Period
UTC large
Height (km)
Speed (km/s)
/
Latitude / Longitude
Inclination (degrees)
Orbital Period (minutes)
Azimuth
Elevation
Range (km)
Doppler Factor
iOS Compass Heading
iOS Angle

Next 30 passes for location: Hong Kong

Rise time Rise Azimuth (degrees) Set time Set Azimuth (degrees) Duration Max altitude (degrees)

No matching passes for this satellites